Weather Roundup
Issued by NWS

Home | Current Version | Previous Version | Graphics & Text | Print | Product List | Glossary Off
Versions: 1 2 3 4 5 6 7 8 9 10 11 12 13 14 15 16 17 18 19 20 21 22 23 24 25 26 27 28 29 30 31 32 33 34 35 36 37 38 39 40 41 42 43 44 45 46 47 48 49 50

000
NZUS93 KARX 201559
HRRWXR

CURRENT HOURLY OBSERVATIONS ACROSS
MUCH OF THE UPPER MISSISSIPPI VALLEY
NATIONAL WEATHER SERVICE LA CROSSE WI
1000 AM CST SAT DEC 20 2014


...SOUTHEAST MINNESOTA...


CITY           SKY/WX    TMP DP  RH WIND       PRES   REMARKS
ROCHESTER      FOG       28  27  96 S10       30.15F VSB 3/4 WCI  19
ROCHESTER/MAYO CLOUDY    28  28  99 SE8       30.16F VSB 1   WCI  20
WINONA         CLOUDY    32  28  86 SE5       30.21F HAZE    WCI  27
AUSTIN         CLOUDY    28  28 100 S6        30.15S FOG     WCI  22
ALBERT LEA     CLOUDY    30  30 100 S7        30.14S FOG     WCI  23
DODGE CENTER   CLOUDY    28  28 100 S10       30.15R FOG     WCI  19
PRESTON        FOG       28  27  97 SE6       30.17F VSB 1/2 WCI  21
OWATONNA       FOG       30  28  93 S8        30.15R VSB 1   WCI  23
FARIBAULT      CLOUDY    30  28  93 S9        30.15S FOG     WCI  22
$$

...ELSEWHERE IN MINNESOTA...


CITY           SKY/WX    TMP DP  RH WIND       PRES   REMARKS
MINNEAPOLIS    CLOUDY    30  27  88 S9        30.15S FOG     WCI  22
INTNL FALLS    CLOUDY    28  26  92 VRB5      30.04S FOG     WCI  23
DULUTH         LGT SNOW  27  24  89 S8        30.10F FOG     WCI  19
RED WING       CLOUDY    30  27  86 SE6       30.17S HAZE    WCI  24
REDWOOD FALLS  CLOUDY    31  28  89 S9        30.11R WCI  23
MANKATO        CLOUDY    30  25  80 S14       30.14R WCI  20
WORTHINGTON    CLOUDY    30  28  93 S13       30.09S WCI  20
FAIRMONT       CLOUDY    28  25  86 S12       30.12F WCI  18
$$

...SOUTHWEST WISCONSIN...


CITY           SKY/WX    TMP DP  RH WIND       PRES   REMARKS
LA CROSSE      CLOUDY    31  25  78 SE7       30.22S WCI  24
PRAIRIE DU CHI MIX PCPN  29  27  90 E6        30.23F WCI  23
BOSCOBEL       CLOUDY    31  25  78 CALM      30.25S HAZE
LONE ROCK      NOT AVBL
PLATTEVILLE    CLOUDY    29  27  92 CALM      30.24S
FORT MC COY    CLOUDY    29  24  82 S3        30.24R
VIROQUA        CLOUDY    27  27 100 SE7       30.20S WCI  20
WIS DELLS      NOT AVBL
$$

...ELSEWHERE IN WISCONSIN...


CITY           SKY/WX    TMP DP  RH WIND       PRES   REMARKS
MILWAUKEE      CLOUDY    29  19  66 VRB3      30.27F
MADISON        FLURRIES  28  24  85 S6        30.25S WCI  22
GREEN BAY      CLOUDY    26  22  84 S3        30.28R
EAU CLAIRE     NOT AVBL
BLACK RVR FLS  CLOUDY    30  24  79 S3        30.22S
MEDFORD        CLOUDY    25  23  92 SE3       30.19R FOG
WAUSAU         CLOUDY    26  23  88 SE7       30.20S FOG     WCI  18
WIS RAPIDS     CLOUDY    27  22  81 S3        30.25R
MARSHFIELD     CLOUDY    27  23  85 S7        30.21R WCI  19
RICE LAKE      CLOUDY    29  25  84 SE7       30.18S WCI  22
$$

...NORTHEAST IOWA...


CITY           SKY/WX    TMP DP  RH WIND       PRES   REMARKS
DECORAH        CLOUDY    28  27  93 SE8       30.18S FOG     WCI  20
MASON CITY     CLOUDY    29  29 100 S9        30.17S FOG     WCI  20
CHARLES CITY   CLOUDY    30  30 100 S8        30.18S FOG     WCI  23
OELWEIN        CLOUDY    28  28 100 SE9       30.19F FOG     WCI  20
$$

...ELSEWHERE IN IOWA...


CITY           SKY/WX    TMP DP  RH WIND       PRES   REMARKS
DES MOINES     CLOUDY    33  29  85 SE6       30.18S FOG     WCI  28
IOWA CITY      CLOUDY    31  28  89 SE7       30.25S FOG     WCI  24
FORT DODGE     CLOUDY    30  25  80 SE5       30.16S WCI  25
$$

...NORTHERN ILLINOIS...


CITY           SKY/WX    TMP DP  RH WIND       PRES   REMARKS
CHICAGO-OHARE  CLOUDY    31  23  72 S6        30.28R WCI  25
CHICAGO-MIDWAY CLOUDY    33  26  75 S7        30.29S WCI  27
MOLINE         CLOUDY    32  25  75 SE6       30.26R HAZE    WCI  26
ROCKFORD       CLOUDY    28  24  85 SE5       30.29R FOG     WCI  23
PEORIA         CLOUDY    32  26  78 SE5       30.28R HAZE    WCI  27
$$

NOTE: "FAIR" INDICATES FEW OR NO CLOUDS BELOW 12,000 FEET WITH NO
SIGNIFICANT WEATHER AND/OR OBSTRUCTIONS TO VISIBILITY. WIND
SPEEDS ARE IN MILES-PER-HOUR.



USA.gov is the U.S. government's official web portal to all federal, state and local government web resources and services.